Zurück zum Katalog

SL-16 DEB

AktivSSO
NORAD 25864·DEBRIS·🇷🇺 Russia

Gestartet Jul 17, 1999 von Baikonur Cosmodrome

Loading…

Nächste Überflüge (nächste 24 Stunden)

TLE

AktuellSource: Space-Track

Epoche: Sep 14, 2026, 11:48 UTC

1 25864U 99039E   26257.49222909  .00000461  00000-0  13629-3 0  9999
2 25864  98.5200 336.7180 0161450 218.3065 153.6850 14.41100800422804

Verfolge SL-16 DEB in Echtzeit mit AllMySat

Download on the App Store